Location: Ferchesar
(52.6477°N, 12.4298°E)
Time: 02:54:28
(UTC+01:00)

Transit 2A - Pass Details

Date: 13 December 2021
Orbit: 591 x 967 km, 66.7° (Epoch: 17 January)

Event Time Altitude Azimuth Distance (km) Brightness Sun altitude
Exits shadow 05:00:31 32° 350° (N) 1,604 7.5 -27.8°
Maximum altitude 05:02:48 43° 35° (NE) 1,324 7.3 -27.4°
Drops below altitude 10° 05:08:45 10° 107° (ESE) 2,650 9.7 -26.5°
Sets 05:11:23 0° 114° (ESE) 3,554 10.6 -26.1°
